KC3SOZ Weather Reports


time (UTC)temp
C
wind
direction
speed
KPH
gust
KPH
rain 1hr
cm
rain 24hr
cm
rain mn
cm
humidity
%
barometer
mb
20260509234454 14 208 4.8 8.0 0.00 0.69 0.69 89 1009.9
20260509233952 14 216 4.8 9.7 0.00 0.69 0.69 89 1010.1
20260509233449 14 155 6.4 8.0 0.00 0.69 0.69 88 1010.2
20260509232945 14 186 4.8 8.0 0.00 0.69 0.69 87 1009.7
20260509232443 15 162 4.8 9.7 0.00 0.69 0.69 87 1009.9
20260509231938 15 188 6.4 9.7 0.00 0.69 0.69 86 1009.9
20260509231435 15 191 4.8 8.0 0.00 0.69 0.69 85 1009.9
20260509230934 15 168 4.8 11.3 0.00 0.69 0.69 85 1009.9
20260509230430 15 170 4.8 8.0 0.00 0.69 0.69 85 1010.0
20260509225926 15 167 4.8 9.7 0.00 0.69 0.69 84 1009.9
20260509225423 15 208 8.0 9.7 0.00 0.69 0.69 86 1009.8
20260509224919 15 150 4.8 9.7 0.00 0.69 0.69 86 1010.0
20260509224414 15 142 1.6 3.2 0.00 0.69 0.69 84 1010.0
20260509223912 15 144 0.0 0.0 0.00 0.69 0.69 83 1009.5
20260509223408 16 160 0.0 3.2 0.00 0.69 0.69 82 1010.0
20260509222905 16 139 0.0 3.2 0.00 0.69 0.69 83 1010.0
20260509222401 16 185 1.6 4.8 0.00 0.69 0.69 83 1009.9
20260509221856 16 182 3.2 4.8 0.00 0.69 0.69 82 1010.0
20260509221354 16 175 1.6 3.2 0.00 0.69 0.69 83 1009.8
20260509220849 16 174 3.2 4.8 0.00 0.69 0.69 83 1009.9
20260509220345 15 172 4.8 8.0 0.00 0.69 0.69 85 1010.2
20260509215841 15 191 3.2 9.7 0.00 0.69 0.69 84 1010.3
20260509215337 16 156 0.0 1.6 0.00 0.69 0.69 85 1010.3
20260509214835 16 200 3.2 3.2 0.00 0.69 0.69 85 1010.4
20260509214332 15 146 0.0 0.0 0.00 0.69 0.69 85 1010.5
20260509213829 15 99 3.2 4.8 0.00 0.69 0.69 87 1010.4
20260509213324 15 126 3.2 8.0 0.00 0.69 0.69 87 1010.4
20260509212822 16 334 4.8 4.8 0.00 0.69 0.69 86 1010.4
20260509212320 15 88 0.0 4.8 0.00 0.69 0.69 87 1010.3
20260509211815 15 320 3.2 8.0 0.00 0.69 0.69 87 1010.2
20260509211311 15 287 4.8 8.0 0.00 0.69 0.69 88 1010.4
20260509210808 15 333 4.8 4.8 0.00 0.69 0.69 89 1010.6
20260509210306 14 313 4.8 8.0 0.00 0.69 0.69 93 1010.4
20260509205805 13 149 1.6 3.2 0.00 0.69 0.69 95 1010.6
20260509205300 13 146 1.6 3.2 0.00 0.69 0.69 98 1010.6
20260509204756 13 155 1.6 1.6 0.00 0.69 0.69 97 1010.6
20260509204253 13 152 0.0 0.0 0.00 0.69 0.69 96 1010.6
20260509203749 13 157 1.6 1.6 0.00 0.69 0.69 97 1010.5
20260509203247 13 151 0.0 0.0 0.00 0.69 0.69 96 1010.7
20260509202742 12 142 0.0 0.0 0.00 0.69 0.69 97 1010.6
20260509202238 12 146 0.0 1.6 0.00 0.69 0.69 97 1010.8
20260509201733 12 144 0.0 3.2 0.00 0.69 0.69 97 1010.6
20260509201230 12 184 1.6 3.2 0.00 0.69 0.69 97 1010.9
20260509200726 12 180 3.2 4.8 0.00 0.69 0.69 96 1010.8
20260509200221 12 221 6.4 8.0 0.00 0.69 0.69 96 1011.0
20260509195717 12 152 0.0 1.6 0.00 0.69 0.69 97 1010.9
20260509195213 12 163 1.6 8.0 0.00 0.69 0.69 96 1011.1
20260509194707 12 211 8.0 9.7 0.00 0.69 0.69 96 1011.0
20260509194204 12 226 6.4 12.9 0.00 0.69 0.69 97 1011.2
20260509193700 12 157 0.0 4.8 0.18 0.69 0.69 98 1011.2
20260509193155 12 192 4.8 8.0 0.18 0.69 0.69 98 1011.4
20260509192652 12 194 4.8 8.0 0.00 0.66 0.66 99 1011.3
20260509192147 12 202 4.8 8.0 0.13 0.66 0.66 99 1011.4
20260509191648 12 161 3.2 4.8 0.13 0.66 0.66 99 1011.5
20260509191144 12 146 1.6 3.2 0.00 0.64 0.64 99 1011.5
20260509190641 12 208 4.8 8.0 0.00 0.64 0.64 98 1011.7
20260509190138 12 156 1.6 3.2 0.00 0.64 0.64 98 1011.4
20260509185636 12 167 0.0 3.2 0.00 0.64 0.64 99 1011.4
20260509185131 12 141 0.0 3.2 0.00 0.64 0.64 98 1011.4
20260509184630 12 195 1.6 3.2 0.00 0.64 0.64 99 1011.5
20260509184126 12 46 4.8 4.8 0.00 0.64 0.64 99 1011.5
20260509183622 12 110 0.0 1.6 0.00 0.64 0.64 99 1011.4
20260509183117 12 148 0.0 3.2 0.18 0.64 0.64 99 1011.5
20260509182614 11 186 1.6 4.8 0.18 0.64 0.64 99 1011.8
20260509182111 11 209 4.8 4.8 0.00 0.61 0.61 99 1011.7
20260509181609 12 325 3.2 4.8 0.00 0.61 0.61 99 1011.8
20260509181106 11 172 3.2 3.2 0.00 0.61 0.61 99 1011.8
20260509180602 11 161 1.6 3.2 0.00 0.61 0.61 99 1012.0
20260509180100 11 163 1.6 3.2 0.00 0.61 0.61 99 1012.1
20260509175555 11 155 1.6 4.8 0.00 0.61 0.61 99 1012.0
20260509175052 11 156 1.6 3.2 0.18 0.61 0.61 99 1012.0
20260509174548 11 47 1.6 3.2 0.18 0.61 0.61 99 1011.9
20260509174043 11 167 3.2 3.2 0.00 0.58 0.58 99 1012.3
20260509173538 11 211 4.8 8.0 0.13 0.58 0.58 99 1012.0
20260509173034 11 205 3.2 4.8 0.13 0.58 0.58 99 1012.2
20260509172532 11 169 4.8 4.8 0.00 0.56 0.56 99 1011.9
20260509172027 11 152 0.0 1.6 0.18 0.56 0.56 99 1011.8
20260509171524 11 186 1.6 8.0 0.30 0.56 0.56 99 1011.7
20260509171020 11 318 4.8 9.7 0.43 0.53 0.53 99 1012.1
20260509170516 11 144 0.0 1.6 0.48 0.51 0.51 99 1012.0
20260509170012 11 131 0.0 3.2 0.30 0.46 0.46 99 1012.3
20260509165510 11 146 0.0 1.6 0.30 0.43 0.43 99 1012.3
20260509165006 11 151 3.2 4.8 0.18 0.41 0.41 99 1011.9
20260509164503 11 167 1.6 3.2 0.13 0.38 0.38 99 1012.0
20260509163958 11 170 3.2 4.8 0.13 0.38 0.38 99 1012.1
20260509163456 11 203 3.2 4.8 0.18 0.36 0.36 99 1012.2
20260509162955 11 155 1.6 3.2 0.18 0.36 0.36 99 1012.2
20260509162454 11 150 3.2 8.0 0.13 0.33 0.33 99 1012.3
20260509161949 11 187 8.0 17.7 0.30 0.33 0.33 99 1012.4
20260509161446 11 208 4.8 9.7 0.36 0.30 0.30 99 1012.5
20260509160941 11 191 11.3 14.5 0.30 0.28 0.28 99 1012.5
20260509160438 11 174 4.8 11.3 0.43 0.25 0.25 99 1012.5
20260509155933 11 160 1.6 9.7 0.61 0.23 0.23 99 1012.4
20260509155430 11 152 3.2 9.7 0.48 0.18 0.18 99 1012.4
20260509154926 11 156 4.8 8.0 0.30 0.13 0.13 98 1013.0
20260509154423 11 146 6.4 14.5 0.30 0.10 0.10 97 1013.2
20260509153920 11 185 6.4 16.1 0.18 0.08 0.08 96 1012.5
20260509153416 11 155 3.2 4.8 0.13 0.05 0.05 96 1012.5
20260509152914 12 167 4.8 8.0 0.13 0.05 0.05 94 1012.6
20260509152409 12 215 3.2 9.7 0.00 0.03 0.03 93 1012.5
20260509151907 12 150 1.6 4.8 0.18 0.03 0.03 93 1012.5
20260509151403 12 180 4.8 12.9 0.18 0.03 0.03 92 1012.5
20260509150901 12 151 1.6 4.8 0.00 0.00 0.00 90 1012.5
20260509150358 12 155 0.0 0.0 0.00 0.00 0.00 90 1012.3
20260509145856 12 154 1.6 3.2 0.00 0.00 0.00 89 1012.3
20260509145350 12 155 0.0 0.0 0.00 0.00 0.00 88 1012.2
20260509144847 12 158 0.0 3.2 0.00 0.00 0.00 88 1012.5
20260509144344 12 122 4.8 4.8 0.00 0.00 0.00 87 1012.4
20260509143841 12 164 3.2 4.8 0.00 0.00 0.00 88 1012.5
20260509143338 12 196 4.8 8.0 0.00 0.00 0.00 86 1012.5
20260509142834 12 67 3.2 3.2 0.00 0.00 0.00 89 1012.4
20260509142331 12 184 1.6 3.2 0.00 0.00 0.00 91 1012.6
20260509141827 11 136 3.2 4.8 0.00 0.00 0.00 95 1012.2
20260509141328 11 127 0.0 0.0 0.00 0.00 0.00 97 1012.3
20260509140820 11 124 0.0 0.0 0.00 0.00 0.00 98 1012.2
20260509140317 11 125 0.0 0.0 0.00 0.00 0.00 98 1012.2
20260509135815 11 128 3.2 4.8 0.00 0.00 0.00 98 1011.8
20260509135312 11 140 4.8 4.8 0.00 0.00 0.00 96 1011.8
20260509134809 12 154 0.0 0.0 0.00 0.00 0.00 94 1012.1
20260509134307 12 115 0.0 0.0 0.00 0.00 0.00 90 1011.8
20260509133804 12 115 0.0 0.0 0.00 0.00 0.00 91 1011.7
20260509133300 12 116 0.0 0.0 0.00 0.00 0.00 90 1012.0
20260509132759 12 109 1.6 1.6 0.00 0.00 0.00 89 1011.8
20260509132258 12 134 0.0 3.2 0.00 0.00 0.00 89 1012.2
20260509131754 12 144 0.0 0.0 0.00 0.00 0.00 88 1012.4
20260509131250 12 178 1.6 3.2 0.00 0.00 0.00 89 1012.4
20260509130747 12 117 0.0 0.0 0.00 0.00 0.00 90 1012.5
20260509130242 11 126 0.0 0.0 0.00 0.00 0.00 91 1012.3
20260509125739 11 139 0.0 3.2 0.00 0.00 0.00 91 1012.3
20260509125236 11 146 0.0 1.6 0.00 0.00 0.00 91 1012.3
20260509124733 11 108 6.4 8.0 0.00 0.00 0.00 90 1012.2
20260509124229 11 124 4.8 4.8 0.00 0.00 0.00 92 1012.1
20260509123728 11 134 0.0 1.6 0.00 0.00 0.00 90 1012.0
20260509123224 11 63 3.2 3.2 0.00 0.00 0.00 88 1012.1
20260509122720 11 111 1.6 3.2 0.00 0.00 0.00 88 1011.9
20260509122217 11 151 1.6 3.2 0.00 0.00 0.00 89 1011.9
20260509121713 11 34 8.0 9.7 0.00 0.00 0.00 89 1011.5
20260509121211 11 105 1.6 4.8 0.00 0.00 0.00 90 1011.8
20260509120709 11 61 4.8 8.0 0.00 0.00 0.00 91 1011.9
20260509120207 11 45 6.4 8.0 0.00 0.00 0.00 90 1011.7
20260509115704 11 109 3.2 3.2 0.00 0.00 0.00 90 1011.9
20260509115201 11 73 4.8 8.0 0.00 0.00 0.00 90 1011.6
20260509114700 11 75 6.4 11.3 0.00 0.00 0.00 89 1011.7
20260509114158 10 69 6.4 11.3 0.00 0.00 0.00 92 1011.6
20260509113656 10 125 0.0 0.0 0.00 0.00 0.00 93 1011.4
20260509113153 10 126 3.2 3.2 0.00 0.00 0.00 91 1011.8
20260509112650 10 78 4.8 8.0 0.00 0.00 0.00 95 1011.7
20260509112147 10 148 1.6 1.6 0.00 0.00 0.00 97 1011.4
20260509111644 10 131 1.6 3.2 0.00 0.00 0.00 98 1011.6
20260509111140 9 97 1.6 3.2 0.00 0.00 0.00 98 1011.8
20260509110638 10 129 0.0 0.0 0.00 0.00 0.00 98 1011.9
20260509110135 9 136 0.0 0.0 0.00 0.00 0.00 98 1011.8
20260509105633 9 114 0.0 0.0 0.00 0.00 0.00 98 1011.7
20260509105130 9 135 0.0 0.0 0.00 0.00 0.00 97 1011.5
20260509104627 9 146 1.6 3.2 0.00 0.00 0.00 96 1011.7
20260509104124 8 137 0.0 0.0 0.00 0.00 0.00 99 1011.7
20260509103622 8 137 3.2 3.2 0.00 0.00 0.00 99 1011.6
20260509103120 8 122 0.0 0.0 0.00 0.00 0.00 98 1011.7
20260509102617 8 127 0.0 0.0 0.00 0.00 0.00 98 1011.6
20260509102114 8 155 0.0 0.0 0.00 0.00 0.00 99 1011.7
20260509101610 8 118 1.6 3.2 0.00 0.00 0.00 99 1011.5
20260509101107 8 169 0.0 0.0 0.00 0.00 0.00 99 1011.6
20260509100604 8 121 0.0 0.0 0.00 0.00 0.00 99 1011.7
20260509095557 8 133 0.0 0.0 0.00 0.00 0.00 99 1011.7
20260509095055 8 156 0.0 0.0 0.00 0.00 0.00 99 1011.5
20260509094551 8 158 0.0 0.0 0.00 0.00 0.00 99 1011.4
20260509094049 7 136 0.0 0.0 0.00 0.00 0.00 99 1011.6
20260509093547 7 136 0.0 0.0 0.00 0.00 0.00 99 1011.5
20260509093044 7 137 0.0 0.0 0.00 0.00 0.00 99 1011.3
20260509092542 7 141 0.0 0.0 0.00 0.00 0.00 99 1011.6
20260509092040 7 124 0.0 0.0 0.00 0.00 0.00 99 1011.6
20260509091537 7 108 0.0 0.0 0.00 0.00 0.00 99 1011.7
20260509091034 7 140 0.0 0.0 0.00 0.00 0.00 99 1011.6
20260509090531 7 111 0.0 0.0 0.00 0.00 0.00 99 1011.5
20260509090029 7 131 0.0 0.0 0.00 0.00 0.00 99 1011.6
20260509085526 7 131 0.0 0.0 0.00 0.00 0.00 99 1011.9
20260509085022 7 132 0.0 0.0 0.00 0.00 0.00 99 1011.7
20260509084519 7 133 0.0 0.0 0.00 0.00 0.00 99 1011.8
20260509084016 7 135 0.0 0.0 0.00 0.00 0.00 99 1011.9
20260509083513 7 136 0.0 0.0 0.00 0.00 0.00 99 1012.0
20260509083010 7 150 0.0 0.0 0.00 0.00 0.00 99 1012.1
20260509082508 7 164 0.0 3.2 0.00 0.00 0.00 99 1011.9
20260509082004 7 119 0.0 4.8 0.00 0.00 0.00 99 1012.1
20260509081502 7 76 6.4 8.0 0.00 0.00 0.00 99 1012.1
20260509080958 7 176 1.6 3.2 0.00 0.00 0.00 99 1012.4
20260509080456 7 113 3.2 4.8 0.00 0.00 0.00 99 1012.4
20260509075954 7 129 0.0 0.0 0.00 0.00 0.00 99 1012.5
20260509075451 7 121 0.0 1.6 0.00 0.00 0.00 99 1012.6
20260509074949 6 132 0.0 0.0 0.00 0.00 0.00 99 1012.5
20260509074446 7 133 0.0 0.0 0.00 0.00 0.00 99 1012.4
20260509073942 7 134 0.0 0.0 0.00 0.00 0.00 99 1012.6
20260509073439 7 134 0.0 0.0 0.00 0.00 0.00 99 1012.5
20260509072935 7 112 0.0 0.0 0.00 0.00 0.00 99 1012.5
20260509072432 7 117 0.0 0.0 0.00 0.00 0.00 99 1012.6
20260509071929 7 117 0.0 0.0 0.00 0.00 0.00 99 1012.8
20260509071426 7 118 0.0 0.0 0.00 0.00 0.00 99 1012.7
20260509070923 7 117 0.0 0.0 0.00 0.00 0.00 99 1012.8
20260509070420 7 117 0.0 0.0 0.00 0.00 0.00 99 1012.8
20260509065915 7 114 0.0 0.0 0.00 0.00 0.00 99 1012.7
20260509065412 8 117 0.0 0.0 0.00 0.00 0.00 99 1012.7
20260509064908 7 35 0.0 0.0 0.00 0.00 0.00 99 1012.8
20260509064406 8 47 0.0 0.0 0.00 0.00 0.00 99 1013.0
20260509063903 8 119 0.0 0.0 0.00 0.00 0.00 99 1013.0
20260509063359 8 137 1.6 1.6 0.00 0.00 0.00 99 1013.0
20260509062856 8 138 3.2 3.2 0.00 0.00 0.00 99 1013.0
20260509062353 8 129 0.0 0.0 0.00 0.00 0.00 98 1013.1
20260509061850 8 105 0.0 3.2 0.00 0.00 0.00 98 1013.1
20260509061349 8 119 0.0 0.0 0.00 0.00 0.00 98 1012.8
20260509060845 9 121 0.0 0.0 0.00 0.00 0.00 98 1013.1
20260509060342 9 121 0.0 0.0 0.00 0.00 0.00 99 1012.7
20260509055837 9 119 1.6 3.2 0.00 0.00 0.00 99 1012.7
20260509055333 9 129 1.6 1.6 0.00 0.00 0.00 98 1013.0
20260509054831 9 131 0.0 0.0 0.00 0.00 0.00 98 1013.2
20260509054327 9 130 0.0 0.0 0.00 0.00 0.00 97 1013.2
20260509053826 9 114 1.6 1.6 0.00 0.00 0.00 97 1013.4
20260509053322 9 139 0.0 0.0 0.00 0.00 0.00 97 1013.2
20260509052821 10 139 0.0 0.0 0.00 0.00 0.00 97 1013.4
20260509052318 10 157 0.0 0.0 0.00 0.00 0.00 96 1013.5
20260509051815 10 157 0.0 1.6 0.00 0.00 0.00 96 1013.3
20260509051313 9 182 1.6 3.2 0.00 0.00 0.00 96 1013.4
20260509050809 9 154 1.6 3.2 0.00 0.00 0.00 96 1013.1
20260509050306 9 142 3.2 3.2 0.00 0.00 0.00 97 1012.8
20260509045804 9 150 4.8 4.8 0.00 0.00 0.00 98 1013.0
20260509045300 9 112 0.0 3.2 0.00 0.00 0.00 97 1013.3
20260509044757 9 107 1.6 8.0 0.00 0.00 0.00 98 1013.3
20260509044255 9 122 0.0 0.0 0.00 0.00 0.00 98 1013.5
20260509043751 9 116 0.0 0.0 0.00 0.00 0.00 98 1013.6
20260509043247 9 123 0.0 0.0 0.00 0.00 0.00 98 1013.6
20260509042743 9 133 0.0 0.0 0.00 0.00 0.00 98 1013.7
20260509042240 9 133 0.0 0.0 0.00 0.00 0.00 98 1013.4
20260509041737 9 127 0.0 0.0 0.00 0.00 0.00 98 1013.4
20260509041234 9 136 0.0 0.0 0.00 0.00 0.00 98 1013.4
20260509040732 9 133 0.0 0.0 0.00 0.00 0.00 97 1013.4
20260509040229 9 140 0.0 0.0 0.00 0.00 0.00 97 1013.5
20260509035725 9 151 1.6 1.6 0.00 0.03 0.03 97 1013.7
20260509035223 9 160 3.2 3.2 0.00 0.03 0.03 97 1013.4
20260509034719 8 41 4.8 8.0 0.00 0.03 0.03 98 1013.5
20260509034217 8 119 1.6 1.6 0.00 0.03 0.03 98 1012.8
20260509033714 8 120 0.0 1.6 0.00 0.03 0.03 98 1013.1
20260509033211 8 126 0.0 0.0 0.00 0.03 0.03 98 1013.1
20260509032708 8 115 3.2 3.2 0.00 0.03 0.03 97 1012.8
20260509032205 8 110 3.2 3.2 0.00 0.03 0.03 97 1013.2
20260509031702 8 147 0.0 0.0 0.00 0.03 0.03 97 1013.2
20260509031200 8 148 0.0 0.0 0.00 0.03 0.03 97 1013.4
20260509030658 8 148 0.0 0.0 0.00 0.03 0.03 97 1013.3
20260509030155 8 149 0.0 0.0 0.00 0.03 0.03 97 1013.4
20260509025651 8 148 0.0 0.0 0.00 0.03 0.03 97 1013.3
20260509025147 8 148 0.0 0.0 0.00 0.03 0.03 98 1013.4
20260509024642 8 141 0.0 0.0 0.00 0.03 0.03 98 1013.4
20260509024138 8 137 0.0 0.0 0.00 0.03 0.03 98 1013.4
20260509023637 8 122 0.0 0.0 0.00 0.03 0.03 98 1013.3
20260509023133 8 121 0.0 0.0 0.00 0.03 0.03 98 1013.2
20260509022629 8 119 0.0 0.0 0.00 0.03 0.03 97 1013.3
20260509022128 8 122 0.0 0.0 0.00 0.03 0.03 97 1013.3
20260509021624 8 144 0.0 0.0 0.00 0.03 0.03 96 1013.1
20260509021121 8 144 0.0 0.0 0.00 0.03 0.03 96 1013.3
20260509020620 8 145 0.0 0.0 0.00 0.03 0.03 96 1013.5
20260509020116 8 146 0.0 0.0 0.00 0.03 0.03 95 1013.2
20260509015615 8 139 0.0 0.0 0.00 0.03 0.03 95 1013.6
20260509015112 8 114 0.0 0.0 0.00 0.03 0.03 96 1013.4
20260509014608 8 129 0.0 0.0 0.00 0.03 0.03 96 1013.3
20260509014105 8 124 0.0 0.0 0.00 0.03 0.03 96 1013.5
20260509013602 8 129 0.0 0.0 0.00 0.03 0.03 96 1013.4
20260509013057 8 129 0.0 0.0 0.00 0.03 0.03 95 1013.3
20260509012554 8 129 0.0 0.0 0.00 0.03 0.03 95 1013.1
20260509012051 8 129 0.0 0.0 0.00 0.03 0.03 95 1013.1
20260509011549 8 129 0.0 0.0 0.00 0.03 0.03 96 1013.2
20260509011046 9 129 0.0 0.0 0.00 0.03 0.03 97 1013.1
20260509010544 9 129 0.0 0.0 0.00 0.03 0.03 95 1012.8
20260509010040 9 128 0.0 0.0 0.00 0.03 0.03 93 1012.7
20260509005538 10 147 0.0 0.0 0.00 0.03 0.03 93 1012.7
20260509005038 10 133 0.0 0.0 0.00 0.03 0.03 93 1013.0
20260509004536 10 132 0.0 3.2 0.00 0.03 0.03 92 1012.7
20260509004032 10 158 0.0 0.0 0.00 0.03 0.03 92 1012.7
20260509003531 10 158 0.0 0.0 0.00 0.03 0.03 91 1012.7
20260509003027 10 158 0.0 0.0 0.00 0.03 0.03 91 1012.8
20260509002525 10 158 0.0 0.0 0.00 0.03 0.03 92 1012.6
20260509002022 11 158 0.0 0.0 0.00 0.03 0.03 90 1012.4
20260509001520 11 158 0.0 0.0 0.00 0.03 0.03 88 1012.5
20260509001015 11 158 0.0 1.6 0.00 0.03 0.03 91 1012.5
20260509000514 11 158 0.0 0.0 0.00 0.03 0.03 88 1012.4
20260509000009 11 158 0.0 0.0 0.00 0.03 0.03 86 1012.4
20260508235508 11 158 0.0 0.0 0.00 0.03 0.03 86 1012.2
20260508235004 12 158 0.0 0.0 0.00 0.03 0.03 84 1012.2